K5JLG-10 Weather Reports


time (UTC)temp
F
wind
direction
speed
knots
gust
knots
rain 1hr
in
rain 24hr
in
rain mn
in
humidity
%
barometer
mb
20260506035717 65 338 4.3 7.8 0.00 0.00 0.00 79 1008.9
20260506034717 66 315 3.5 9.6 0.00 0.00 0.00 79 1008.8
20260506033717 66 338 3.5 5.2 0.00 0.00 0.00 79 1008.6
20260506032717 67 0 1.7 3.5 0.00 0.00 0.00 79 1008.5
20260506031717 68 338 6.1 10.4 0.00 0.00 0.00 78 1008.3
20260506030717 68 338 5.2 8.7 0.00 0.00 0.00 78 1008.1
20260506025716 69 338 2.6 6.1 0.00 0.00 0.00 78 1008.0
20260506024716 69 338 5.2 7.8 0.00 0.00 0.00 77 1008.0
20260506023737 70 0 6.1 7.8 0.00 0.00 0.00 77 1007.7
20260506022717 70 338 5.2 8.7 0.00 0.00 0.00 77 1007.3
20260506021718 70 338 2.6 4.3 0.00 0.00 0.00 76 1007.0
20260506020716 70 315 3.5 5.2 0.00 0.00 0.00 75 1006.9
20260506015737 71 315 3.5 7.0 0.00 0.00 0.00 75 1006.4
20260506014716 71 338 2.6 4.3 0.00 0.00 0.00 74 1006.2
20260506013717 71 315 4.3 7.0 0.00 0.00 0.00 74 1006.2
20260506012717 71 0 3.5 5.2 0.00 0.00 0.00 74 1005.7
20260506011717 72 315 5.2 7.0 0.00 0.00 0.00 74 1006.0
20260506010738 73 338 7.0 11.3 0.00 0.00 0.00 73 1006.0
20260506005716 73 23 1.7 5.2 0.00 0.00 0.00 73 1005.9
20260506004717 74 338 1.7 6.1 0.00 0.00 0.00 73 1005.7
20260506003757 75 338 2.6 5.2 0.00 0.00 0.00 70 1005.1
20260506002716 75 338 6.1 7.8 0.00 0.00 0.00 68 1005.0
20260506001717 76 338 2.6 6.1 0.00 0.00 0.00 69 1004.8
20260506000717 77 338 3.5 7.0 0.00 0.00 0.00 68 1004.9
20260505235758 79 338 6.1 7.8 0.00 0.00 0.00 67 1004.7
20260505234716 80 338 7.0 12.2 0.00 0.00 0.00 66 1004.5
20260505233716 81 338 7.0 11.3 0.00 0.00 0.00 65 1004.5
20260505232716 83 338 6.1 8.7 0.00 0.00 0.00 64 1004.5
20260505231737 84 315 2.6 5.2 0.00 0.00 0.00 63 1004.4
20260505230716 84 315 3.5 7.0 0.00 0.00 0.00 61 1004.1
20260505225717 85 338 6.1 12.2 0.00 0.00 0.00 60 1003.9
20260505224717 86 338 4.3 6.1 0.00 0.00 0.00 57 1003.7
20260505223717 87 338 2.6 6.1 0.00 0.00 0.00 55 1003.8
20260505222717 87 315 3.5 4.3 0.00 0.00 0.00 54 1003.6
20260505221717 88 315 5.2 7.0 0.00 0.00 0.00 52 1003.3
20260505220716 89 315 4.3 7.8 0.00 0.00 0.00 52 1003.2
20260505215716 91 0.0 0.9 0.00 0.00 0.00 52 1003.2
20260505214716 92 315 1.7 4.3 0.00 0.00 0.00 52 1003.4
20260505213716 92 338 0.9 3.5 0.00 0.00 0.00 53 1003.4
20260505212736 93 135 1.7 4.3 0.00 0.00 0.00 53 1003.4
20260505211716 92 180 0.9 2.6 0.00 0.00 0.00 54 1003.6
20260505210737 92 180 0.9 2.6 0.00 0.00 0.00 55 1003.7
20260505205716 92 0.0 0.9 0.00 0.00 0.00 55 1003.8
20260505204716 93 203 1.7 2.6 0.00 0.00 0.00 55 1003.8
20260505203716 92 158 0.9 1.7 0.00 0.00 0.00 56 1004.0
20260505202716 93 158 1.7 4.3 0.00 0.00 0.00 56 1004.3
20260505201716 92 180 3.5 5.2 0.00 0.00 0.00 57 1004.2
20260505200716 92 113 0.9 2.6 0.00 0.00 0.00 59 1004.3
20260505195716 91 203 2.6 8.7 0.00 0.00 0.00 59 1004.4
20260505194716 90 248 0.9 1.7 0.00 0.00 0.00 60 1004.5
20260505193717 90 158 2.6 4.3 0.00 0.00 0.00 61 1004.5
20260505192716 89 180 2.6 7.0 0.00 0.00 0.00 62 1004.5
20260505191756 88 248 3.5 9.6 0.00 0.00 0.00 63 1004.7
20260505190716 88 135 1.7 4.3 0.00 0.00 0.00 65 1004.4
20260505185716 87 180 2.6 3.5 0.00 0.00 0.00 64 1004.5
20260505184716 87 203 4.3 7.0 0.00 0.00 0.00 65 1004.5
20260505183716 86 248 1.7 4.3 0.00 0.00 0.00 67 1004.7
20260505182736 86 203 2.6 4.3 0.00 0.00 0.00 66 1004.8
20260505181757 86 180 3.5 7.0 0.00 0.00 0.00 67 1004.7
20260505180716 86 248 4.3 7.0 0.00 0.00 0.00 66 1004.9
20260505175716 86 180 3.5 6.1 0.00 0.00 0.00 66 1004.9
20260505174736 86 180 5.2 9.6 0.00 0.00 0.00 66 1004.8
20260505173716 85 225 2.6 5.2 0.00 0.00 0.00 69 1004.8
20260505172716 85 203 3.5 6.1 0.00 0.00 0.00 69 1004.9
20260505171716 84 158 3.5 7.0 0.00 0.00 0.00 69 1004.9
20260505170716 84 180 5.2 8.7 0.00 0.00 0.00 70 1005.0
20260505165716 83 180 3.5 7.0 0.00 0.00 0.00 72 1004.9
20260505164736 82 158 6.1 9.6 0.00 0.00 0.00 72 1004.9
20260505163716 82 225 6.1 9.6 0.00 0.00 0.00 73 1004.8
20260505162716 81 203 5.2 7.8 0.00 0.00 0.00 74 1004.8
20260505161736 81 225 7.0 13.0 0.00 0.00 0.00 74 1004.7
20260505160716 80 180 3.5 7.0 0.00 0.00 0.00 75 1004.7
20260505152716 78 203 7.0 12.2 0.00 0.00 0.00 79 1004.5
20260505151736 78 180 7.8 13.0 0.00 0.00 0.00 79 1004.6
20260505150716 77 180 3.5 8.7 0.00 0.00 0.00 80 1004.6
20260505124715 72 180 4.3 7.0 0.00 0.00 0.00 87 1003.9
20260505123715 72 180 5.2 7.8 0.00 0.00 0.00 87 1004.0
20260505122715 72 203 6.1 9.6 0.00 0.00 0.00 87 1003.9
20260505121735 72 203 4.3 7.0 0.00 0.00 0.00 87 1003.7
20260505120715 72 203 7.0 9.6 0.00 0.00 0.00 87 1003.6
20260505115716 72 203 6.1 11.3 0.00 0.00 0.00 87 1003.7
20260505114716 72 203 7.0 12.2 0.00 0.00 0.00 87 1003.6
20260505113735 72 158 6.1 8.7 0.00 0.00 0.00 87 1003.4
20260505112718 72 180 7.8 12.2 0.00 0.00 0.00 87 1003.4
20260505111717 72 180 5.2 7.8 0.00 0.00 0.00 86 1003.5
20260505110717 72 180 7.0 10.4 0.00 0.00 0.00 86 1003.5
20260505101717 72 225 3.5 6.1 0.00 0.00 0.00 86 1003.6
20260505100717 72 180 6.1 7.8 0.00 0.00 0.00 86 1003.8
20260505095737 72 158 1.7 4.3 0.00 0.00 0.00 86 1003.9
20260505094717 72 180 4.3 7.0 0.00 0.00 0.00 86 1003.8
20260505093717 72 180 6.1 10.4 0.00 0.00 0.00 86 1003.8
20260505092718 72 203 7.0 12.2 0.00 0.00 0.00 85 1003.9
20260505091737 72 203 6.1 11.3 0.00 0.00 0.00 85 1004.0
20260505090717 72 180 7.8 12.2 0.00 0.00 0.00 85 1004.1
20260505085717 72 180 6.1 10.4 0.00 0.00 0.00 85 1004.1
20260505084717 72 180 7.0 11.3 0.00 0.00 0.00 85 1004.1
20260505083717 73 180 5.2 10.4 0.00 0.00 0.00 85 1004.2
20260505082717 73 158 3.5 11.3 0.00 0.00 0.00 84 1004.2
20260505081717 73 180 4.3 7.8 0.00 0.00 0.00 84 1004.2
20260505080717 73 158 7.0 11.3 0.00 0.00 0.00 84 1004.1
20260505075717 73 203 6.1 10.4 0.00 0.00 0.00 83 1004.2
20260505074717 73 158 5.2 7.0 0.00 0.00 0.00 82 1004.4
20260505073717 74 180 3.5 7.0 0.00 0.00 0.00 82 1004.6
20260505072718 74 180 6.1 10.4 0.00 0.00 0.00 81 1004.8
20260505071737 74 203 4.3 9.6 0.00 0.00 0.00 81 1004.9
20260505070717 74 203 4.3 7.8 0.00 0.00 0.00 80 1005.2
20260505065718 74 180 7.0 9.6 0.00 0.00 0.00 79 1005.4
20260505064717 74 180 5.2 7.0 0.00 0.00 0.00 78 1005.4
20260505063717 75 203 3.5 5.2 0.00 0.00 0.00 78 1005.6
20260505062717 75 158 6.1 9.6 0.00 0.00 0.00 77 1005.5
20260505061717 75 180 6.1 10.4 0.00 0.00 0.00 76 1005.7
20260505060717 75 158 4.3 7.8 0.00 0.00 0.00 76 1005.7
20260505055716 76 180 7.0 9.6 0.00 0.00 0.00 75 1005.7
20260505054737 76 158 5.2 8.7 0.00 0.00 0.00 75 1005.6
20260505053716 76 158 5.2 11.3 0.00 0.00 0.00 74 1005.5
20260505052716 76 203 2.6 5.2 0.00 0.00 0.00 74 1005.5
20260505051717 76 180 5.2 8.7 0.00 0.00 0.00 74 1005.7
20260505050716 76 180 4.3 7.8 0.00 0.00 0.00 74 1005.7
20260505041717 76 180 5.2 9.6 0.00 0.00 0.00 74 1005.7
20260505040717 76 180 5.2 7.8 0.00 0.00 0.00 74 1005.9